CZ-6A DEB, 64634

Orbit data source: Space-Track

CZ-6A DEB, 64634 is space debris in LEO originally from a launch on Tue, 06 Aug 2024 UTC launched from the Taiyaun Space Center, China (TSC). Debris objects in space refer to the collection of defunct objects orbiting the Earth. Examples of debris include non-operational satellites, rocket bodies, and fragments generated from explosions, collisions, or faulty payload assembly.

Loading next visibility...
Identifier
64634, 2024-140ADY
Orbit
LEO
Country
Flag of CNCN / PRC
Related business
Manufacturer
SAST
Mission
Spacecraft
Bus & Motor
Unknown
Mass
Unknown
Launch date (UTC)
2024-08-06 (2 years ago)
Launch vehicle
Unknown
Launch site
Taiyaun Space Center, China (TSC)
Object type
Payload
Rocket body
Debris
Shape & HBR
Unknown shape, 0.1 m
Radar Cross Section
Medium (>0.1 m² and <1 m²)

Expand to show TLE details & history
Last TLE update: 13 hours ago

TLE from 13 hours ago
0 CZ-6A DEB
1 64634U 24140ADY 26171.29207623  .00002043  00000-0  10267-2 0  9999
2 64634  88.9924 274.6448 0085289 212.5242 147.0674 14.14280904 91574
Epoch: 2026-06-20T07:00Z
TLE epoch observation values (Epoch: 2026-06-20T07:00:35.386Z)
Latitude
-0.00008°
Longitude
-99.01144°
Altitude
899.673 km
Speed
7.376 km/s
True Right ascension
18h 18m 34s
True Declination
0° 00' 00"
Sunlit
Object was in full shadow at epoch
Visualization orbit readout
Latitude
Unknown
Longitude
Unknown
Altitude
Unknown
Speed
Unknown
Apparent Right ascension
Unknown
Apparent Declination
Unknown
Sunlit
N/A
Visualization observer readout
Local Sidereal Time
07:20:21
Azimuth
Unknown
Elevation
Unknown
Doppler factor
Unknown
Orbital elements
Apogee altitude
903.296 km
Perigee altitude
780.141 km
Semi-major axis
7,219.856 km
Eccentricity
0.00853
Inclination
88.9924°
RAAN
274.6448°
Arg. of periapsis
212.5242°
True anomaly
147.59401°
Mean anomaly
147.0674°
Eccentric anomaly
147.33118°
Mean motion
3.53794 °/min
Orbital period
101.75 mins
BSTAR
0.0010267
Loading maneuver chart data...
Computing Atmospheric mass density...
Loading historical data...
Loading historical data...
Loading historical data...
Loading historical data...
Loading historical data...
Loading historical data...
Loading historical data...

Documentation

Showing up to 5 results
|